Home   Weather   Ontario   Past weeks

Flag for USA Past Weather in Ontario, Oregon, USA — Yesterday and Last 2 Weeks

Now
37 °F

Clear.


Feels Like: 31 °F
Forecast: 36 / 65 °F
Wind: 8 mph from West

Location: Ontario Municipal Airport

Current Time: Apr 29, 2017 at 7:45:19 am

Latest Report: Apr 29, 2017 at 6:53 am


Visibility: 10 mi

Pressure: 30.28 "Hg (27.92 "Hg at 656m altitude)

Humidity: 76%

Dew Point: 30 °F

Location of OntarioLocation

Past Weather in Ontario — Graph

°F

Ontario Temperature Yesterday

Maximum temperature yesterday: 62 °F (at 5:53 pm)
Minimum temperature yesterday: 42 °F (at 2:53 am)
Average temperature yesterday: 51 °F

High & Low Weather Summary for the Past Weeks

 TemperatureHumidityPressure
High70 °F (Apr 22, 3:53 pm)93% (Apr 15, 6:53 am)30.40 "Hg (Apr 15, 6:53 am)
Low29 °F (Apr 15, 6:53 am)24% (Apr 21, 6:53 pm)29.67 "Hg (Apr 24, 3:53 pm)
Average51 °F61%30.02 "Hg
* Reported Apr 14 5:53 am — Apr 29 5:53 am, Ontario, Weather by CustomWeather, © 2017

Note: Actual official high and low records may vary slightly from our data, if they occured in-between our weather recording intervals... More about our weather records

Advertising

Ontario Weather History for the Previous 24 Hours

Scroll right to see more
 ConditionsComfort  
Time TempWeatherWind HumidityBarometerVisibility
5:53 am
Sat, Apr 29
39 °FClear.3 mph70%30.26 "Hg10 mi
4:53 am39 °FClear.7 mph73%30.25 "Hg10 mi
3:53 am42 °FClear.5 mph68%30.24 "Hg10 mi
2:53 am43 °FClear.5 mph65%30.24 "Hg10 mi
1:53 am41 °FClear.7 mph70%30.24 "Hg10 mi
12:53 am46 °FClear.8 mph61%30.23 "Hg10 mi
11:53 pm
Fri, Apr 28
48 °FClear.14 mph56%30.23 "Hg10 mi
10:53 pm48 °FClear.13 mph56%30.23 "Hg10 mi
9:53 pm49 °FClear.12 mph55%30.21 "Hg10 mi
8:53 pm53 °FSunny.13 mph41%30.19 "Hg10 mi
7:53 pm57 °FSunny.12 mph32%30.16 "Hg10 mi
6:53 pm58 °FScattered clouds.12 mph31%30.16 "Hg10 mi
5:53 pm62 °FPartly sunny.21 mph27%30.14 "Hg10 mi
4:53 pm61 °FScattered clouds.15 mph29%30.14 "Hg10 mi
3:53 pm61 °FScattered clouds.21 mph31%30.14 "Hg10 mi
2:53 pm59 °FPartly sunny.15 mph35%30.16 "Hg10 mi
1:53 pm58 °FScattered clouds.20 mph36%30.16 "Hg10 mi
12:53 pm56 °FPassing clouds.15 mph34%30.16 "Hg10 mi
11:53 am53 °FPassing clouds.15 mph39%30.17 "Hg10 mi
10:53 am51 °FSunny.21 mph44%30.16 "Hg10 mi
9:53 am50 °FSunny.22 mph46%30.16 "Hg10 mi
8:53 am47 °FSunny.18 mph52%30.15 "Hg10 mi
7:53 am44 °FSunny.20 mph58%30.12 "Hg10 mi
Weather by CustomWeather, © 2017

See weather overviewHow to use our weather pages